Miscellaneous Local Product
Issued by NWS Hastings, NE

Home | Current Version | Previous Version | Graphics & Text | Print | Product List | Glossary On
Versions: 1 2 3 4 5 6 7 8 9 10 11 12 13 14 15 16 17 18 19 20 21 22 23 24 25 26 27 28 29 30 31 32 33 34 35 36 37 38 39 40 41 42 43 44 45 46 47 48 49 50
000
AXUS43 KGID 260702
MISGRI

GID CWA HOURLY WEATHER ROUNDUP
NATIONAL WEATHER SERVICE HASTINGS NE
200 AM CDT WED APR 26 2017

NOTE: "FAIR" INDICATES FEW OR NO CLOUDS BELOW 12,000 FEET WITH NO
SIGNIFICANT WEATHER AND/OR OBSTRUCTIONS TO VISIBILITY.

...SOUTH CENTRAL NEBRASKA...

CITY           SKY/WX    TMP DP  RH WIND       PRES   REMARKS
GRAND ISLAND   CLOUDY    36  34  92 NW25G31   29.70S WCI  24
HASTINGS       CLOUDY    37  33  85 N22       29.70R WCI  26
KEARNEY        CLOUDY    36  28  75 N23G33    29.72S WCI  24
ORD            CLOUDY    34  30  85 NW21G32   29.73S WCI  22
YORK           CLOUDY    37  34  87 N17G26    29.66S WCI  28
AURORA         CLOUDY    37  33  87 N26G35    29.68S WCI  25
LEXINGTON      CLOUDY    35  30  82 N22G30    29.76S WCI  23
HOLDREGE       CLOUDY    36  31  85 N21G26    29.72S WCI  24
HEBRON         CLOUDY    39  34  82 N16G26    29.66R WCI  30

...NEBRASKA PANHANDLE...

CITY           SKY/WX    TMP DP  RH WIND       PRES   REMARKS
CHADRON        CLOUDY    29  26  89 N6        29.89F WCI  23
ALLIANCE       CLOUDY    28  23  81 N15       29.85S WCI  16
SCOTTSBLUFF    CLOUDY    32  26  78 W6        29.86F WCI  26
SIDNEY         CLOUDY    28  25  88 N13       29.83S WCI  17

...WESTERN AND NORTH CENTRAL NEBRASKA...

CITY           SKY/WX    TMP DP  RH WIND       PRES   REMARKS
VALENTINE      CLOUDY    31  24  75 NW14      29.82F WCI  21
AINSWORTH      CLOUDY    31  29  93 N22G28    29.80S WCI  18
ONEILL         CLOUDY    33  31  93 NW18G28   29.75S FOG     WCI  22
BROKEN BOW     CLOUDY    33  28  81 N25G32    29.75S WCI  20
IMPERIAL       CLOUDY    34  26  72 N21G28    29.81R WCI  22
NORTH PLATTE   CLOUDY    34  26  72 NW16G28   29.79F WCI  24
MCCOOK         CLOUDY    37  29  72 N24G35    29.76F WCI  26

...EASTERN NEBRASKA...

CITY           SKY/WX    TMP DP  RH WIND       PRES   REMARKS
NORFOLK        CLOUDY    34  31  88 NW21G31   29.67F WCI  22
SO SIOUX CITY  CLOUDY    38  36  92 NW24G32   29.61F WCI  27
TEKAMAH        CLOUDY    39  36  89 NW22      29.61F WCI  29
COLUMBUS       CLOUDY    36  30  80 NW21G30   29.66F WCI  24
ALBION         CLOUDY    36  32  85 N17G31    29.69F WCI  25
OMAHA EPPLEY   CLOUDY    41  36  82 N17       29.59R
OFFUTT AFB     CLOUDY    41  37  85 NW16      29.59R
MILLARD        CLOUDY    41  38  89 NW13G22   29.61S
LINCOLN        CLOUDY    39  34  82 N20       29.63S WCI  29
NEBRASKA CITY  CLOUDY    41  37  87 N22G29    29.57F
BEATRICE       CLOUDY    40  37  87 N17G24    29.62F WCI  31
FALLS CITY     CLOUDY    44  39  82 NW16G25   29.57R

...NORTHERN KANSAS...

CITY           SKY/WX    TMP DP  RH WIND       PRES   REMARKS
GOODLAND       CLOUDY    37  33  85 N18G28    29.76R WCI  27
HILL CITY      CLOUDY    40  33  76 N23G31    29.73S WCI  30
NORTON         CLOUDY    37  28  70 NW16G30   29.72F WCI  28
PHILLIPSBURG   CLOUDY    39  32  75 NW14G23   29.73R WCI  31
SMITH CENTER   CLOUDY    37  32  81 NW23G29   29.70R WCI  26
HAYS           CLOUDY    40  35  83 N24       29.69R WCI  29
RUSSELL        CLOUDY    41  35  79 N21G26    29.67R
CONCORDIA      CLOUDY    41  35  79 N15G23    29.66R
SALINA         CLOUDY    46  38  73 N17       29.64R
TOPEKA         CLOUDY    47  45  93 N13       29.54F



USA.gov is the U.S. government's official web portal to all federal, state and local government web resources and services.